Home > Weather > Rehovot > Past weeks

Flag for Israel Past Weather in Rehovot, Israel — Yesterday and Last 2 Weeks

Now
88 °F

Passing clouds.


Feels Like: 94 °F
Forecast: 73 / 89 °F
Wind: 13 mph from Northwest

Location: Ben Gurion International Airport

Current Time: Jul 28, 2016 at 5:36:51 PM

Latest Report: Jul 28, 2016 at 4:50 PM


Visibility: N/A

Pressure: 29.71 "Hg

Humidity: 59%

Dew Point: 72 °F

Location of RehovotLocation

Past Weather in Rehovot — Graph

°F

Rehovot Temperature Yesterday

Maximum temperature yesterday: 90 °F (at 11:50 AM)
Minimum temperature yesterday: 75 °F (at 5:20 AM)
Average temperature yesterday: 83 °F

High & Low Weather Summary for the Past Weeks

 TemperatureHumidityPressure
High91 °F (Jul 15, 1:50 PM)84% (Jul 14, 1:20 AM)29.89 "Hg (Jul 14, 1:20 AM)
Low73 °F (Jul 22, 5:20 AM)20% (Jul 26, 8:50 PM)29.65 "Hg (Jul 19, 11:20 AM)
Average83 °F64%29.75 "Hg
* Reported Jul 13 4:20 PM — Jul 28 4:20 PM, Rehovot, Weather by CustomWeather, © 2016

Note: Actual official high and low records may vary slightly from our data, if they occured in-between our weather recording intervals... More about our weather records

Advertising

Rehovot Weather History for the Previous 24 Hours

Scroll right to see more
 ConditionsComfort  
Time TempWeatherWind HumidityBarometerVisibility
4:20 PM
Thu, Jul 28
86 °FPassing clouds.12 mph59%29.71 "HgN/A
3:50 PM88 °FPassing clouds.13 mph55%29.71 "HgN/A
3:20 PM88 °FPassing clouds.13 mph55%29.71 "HgN/A
2:50 PM88 °FSunny.13 mph55%29.71 "Hg10 mi
2:20 PM88 °FPassing clouds.10 mph55%29.71 "HgN/A
1:50 PM88 °FPassing clouds.10 mph52%29.71 "HgN/A
1:20 PM88 °FSunny.12 mph55%29.74 "Hg10 mi
12:50 PM88 °FSunny.12 mph55%29.74 "Hg10 mi
12:20 PM88 °FSunny.10 mph55%29.74 "Hg10 mi
11:50 AM88 °FPassing clouds.8 mph55%29.74 "HgN/A
11:20 AM88 °FPassing clouds.10 mph52%29.74 "HgN/A
10:50 AM88 °FPassing clouds.7 mph55%29.74 "HgN/A
10:20 AM86 °FPassing clouds.7 mph59%29.77 "HgN/A
9:50 AM86 °FScattered clouds.5 mph59%29.77 "HgN/A
9:20 AM84 °FScattered clouds.5 mph62%29.77 "HgN/A
8:50 AM84 °FScattered clouds.3 mph62%29.77 "HgN/A
8:20 AM82 °FScattered clouds.5 mph66%29.77 "HgN/A
7:50 AM81 °FPassing clouds.6 mph74%29.74 "HgN/A
7:20 AM79 °FPassing clouds.6 mph74%29.74 "HgN/A
6:50 AM77 °FPassing clouds.6 mph79%29.74 "HgN/A
6:20 AM77 °FPassing clouds.5 mph79%29.74 "HgN/A
5:50 AM77 °FPassing clouds.3 mph79%29.74 "HgN/A
5:20 AM84 °FPassing clouds.6 mph66%29.74 "HgN/A
4:50 AM77 °FPassing clouds.3 mph83%29.74 "HgN/A
4:20 AM77 °FPassing clouds.5 mph83%29.74 "HgN/A
3:50 AM79 °FPassing clouds.5 mph79%29.74 "HgN/A
3:20 AM79 °FPassing clouds.3 mph79%29.71 "HgN/A
2:50 AM79 °FPassing clouds.5 mph79%29.71 "HgN/A
2:20 AM79 °FPassing clouds.6 mph79%29.71 "HgN/A
1:50 AM79 °FPassing clouds.6 mph79%29.74 "HgN/A
1:20 AM81 °FPassing clouds.7 mph74%29.74 "HgN/A
12:50 AM81 °FPassing clouds.3 mph74%29.74 "HgN/A
12:20 AM81 °FPassing clouds.2 mph74%29.74 "HgN/A
11:50 PM
Wed, Jul 27
81 °FPassing clouds.1 mph74%29.74 "HgN/A
11:20 PM81 °FPassing clouds.2 mph74%29.74 "HgN/A
10:50 PM81 °FPassing clouds.2 mph74%29.74 "HgN/A
10:20 PM81 °FPassing clouds.2 mph74%29.74 "HgN/A
9:50 PM81 °FPassing clouds.3 mph74%29.74 "HgN/A
9:20 PM81 °FPassing clouds.6 mph74%29.74 "HgN/A
8:50 PM82 °FPassing clouds.6 mph74%29.74 "HgN/A
8:20 PM82 °FPassing clouds.6 mph74%29.74 "HgN/A
7:50 PM82 °FPassing clouds.7 mph70%29.74 "HgN/A
7:20 PM84 °FPassing clouds.6 mph66%29.74 "HgN/A
6:50 PM86 °FPassing clouds.8 mph62%29.74 "HgN/A
6:20 PM84 °FPassing clouds.8 mph66%29.71 "HgN/A
5:50 PM86 °FPassing clouds.8 mph62%29.71 "HgN/A
5:20 PM86 °FPassing clouds.10 mph62%29.71 "HgN/A
Weather by CustomWeather, © 2016

See weather overviewHow to use our weather pages